DWGW3121 Weather Reports


time (UTC)temp
C
wind
direction
speed
KPH
gust
KPH
rain 1hr
cm
rain 24hr
cm
rain mn
cm
humidity
%
barometer
mb
20260506162602 16 217 3.2 8.0 0.15 0.18 0.18 90 1006.6
20260506161604 16 225 4.8 12.9 0.10 0.13 0.13 89 1006.7
20260506161102 16 211 6.4 16.1 0.13 0.13 0.13 89 1006.8
20260506160602 16 236 4.8 16.1 0.10 0.10 0.10 88 1006.7
20260506155604 16 255 3.2 8.0 0.08 0.08 0.08 88 1007.0
20260506155104 17 235 4.8 8.0 0.05 0.05 0.05 87 1006.9
20260506154604 17 246 4.8 8.0 0.05 0.05 0.05 87 1006.9
20260506153602 17 219 1.6 8.0 0.03 0.03 0.03 86 1007.0
20260506153103 17 239 3.2 12.9 0.03 0.03 0.03 86 1006.9
20260506152602 17 242 4.8 9.7 0.03 0.03 0.03 85 1006.8
20260506152103 17 169 3.2 8.0 0.03 0.03 0.03 84 1006.8
20260506151603 17 204 4.8 16.1 0.03 0.03 0.03 84 1006.8
20260506151103 17 235 3.2 12.9 0.00 0.00 0.00 83 1006.8
20260506150603 17 227 8.0 19.3 0.00 0.00 0.00 82 1007.0
20260506145603 18 232 3.2 8.0 0.00 0.00 0.00 81 1007.0
20260506145102 18 235 4.8 11.3 0.00 0.00 0.00 80 1007.1
20260506144602 18 229 4.8 11.3 0.00 0.00 0.00 79 1007.2
20260506144103 18 255 4.8 11.3 0.00 0.00 0.00 79 1007.4
20260506143604 18 204 4.8 16.1 0.00 0.00 0.00 78 1007.4
20260506143103 18 255 3.2 9.7 0.00 0.00 0.00 77 1007.4
20260506142603 18 216 6.4 14.5 0.00 0.00 0.00 77 1007.4
20260506142102 18 211 3.2 11.3 0.00 0.00 0.00 76 1007.4
20260506141603 18 228 6.4 14.5 0.00 0.00 0.00 76 1007.5
20260506140603 18 246 6.4 14.5 0.00 0.00 0.00 76 1007.4
20260506140104 18 224 3.2 11.3 0.00 0.00 0.00 76 1007.3
20260506135603 18 225 4.8 11.3 0.00 0.00 0.00 76 1007.3
20260506134603 18 257 4.8 11.3 0.00 0.00 0.00 76 1006.9
20260506134102 18 220 3.2 9.7 0.00 0.00 0.00 76 1007.0
20260506133603 18 223 6.4 19.3 0.00 0.00 0.00 76 1006.9
20260506133103 18 225 4.8 16.1 0.00 0.00 0.00 76 1007.0
20260506132602 18 232 3.2 11.3 0.00 0.00 0.00 76 1007.0
20260506132103 18 231 4.8 11.3 0.00 0.00 0.00 77 1006.9
20260506130603 18 195 6.4 11.3 0.00 0.00 0.00 77 1006.9
20260506130103 18 203 3.2 9.7 0.00 0.00 0.00 78 1006.9
20260506125103 17 240 4.8 11.3 0.00 0.00 0.00 78 1006.9
20260506124604 17 222 4.8 9.7 0.00 0.00 0.00 78 1007.0
20260506124103 17 215 4.8 9.7 0.00 0.00 0.00 78 1007.3
20260506123103 17 240 3.2 8.0 0.00 0.00 0.00 78 1007.4
20260506122602 17 202 4.8 9.7 0.00 0.00 0.00 78 1007.6
20260506122103 17 219 4.8 8.0 0.00 0.00 0.00 78 1007.6
20260506121603 17 203 4.8 12.9 0.00 0.00 0.00 78 1007.7
20260506121102 17 225 4.8 12.9 0.00 0.00 0.00 78 1007.8
20260506120603 17 229 4.8 19.3 0.00 0.00 0.00 78 1007.7
20260506115103 17 235 1.6 12.9 0.00 0.00 0.00 77 1007.5
20260506114604 17 236 6.4 16.1 0.00 0.00 0.00 77 1007.3
20260506114104 17 227 4.8 16.1 0.00 0.00 0.00 77 1007.4
20260506113103 17 222 6.4 12.9 0.00 0.00 0.00 78 1007.3
20260506112103 17 230 4.8 12.9 0.00 0.00 0.00 78 1007.2
20260506111603 17 235 4.8 11.3 0.00 0.00 0.00 78 1007.2
20260506111103 17 246 4.8 14.5 0.00 0.00 0.00 78 1007.3
20260506110604 17 226 4.8 8.0 0.00 0.00 0.00 79 1007.1
20260506110103 16 233 4.8 14.5 0.00 0.00 0.00 80 1007.0
20260506105603 16 204 3.2 9.7 0.00 0.00 0.00 81 1006.9
20260506105104 16 215 3.2 11.3 0.00 0.00 0.00 82 1006.9
20260506104604 16 220 3.2 8.0 0.00 0.00 0.00 84 1007.0
20260506104103 15 238 8.0 25.7 0.00 0.00 0.00 87 1007.0
20260506103603 14 201 4.8 11.3 0.00 0.00 0.00 90 1006.9
20260506103103 13 231 1.6 8.0 0.00 0.00 0.00 91 1007.0
20260506102603 13 259 3.2 4.8 0.00 0.00 0.00 92 1007.1
20260506102103 13 242 3.2 4.8 0.00 0.00 0.00 92 1007.2
20260506101102 12 241 1.6 4.8 0.00 0.00 0.00 92 1007.1
20260506100104 12 338 1.6 1.6 0.00 0.00 0.00 92 1007.0
20260506095104 12 338 0.0 1.6 0.00 0.00 0.00 91 1007.1
20260506094603 12 338 0.0 1.6 0.00 0.00 0.00 91 1007.0
20260506093602 12 338 1.6 3.2 0.00 0.00 0.00 91 1006.8
20260506093103 12 338 0.0 1.6 0.00 0.00 0.00 91 1006.9
20260506092604 12 338 0.0 0.0 0.00 0.00 0.00 91 1006.9
20260506091104 13 338 0.0 1.6 0.00 0.00 0.00 90 1007.0
20260506090603 13 338 0.0 0.0 0.00 0.00 0.00 90 1007.0
20260506085603 13 338 0.0 0.0 0.00 0.00 0.00 90 1007.0
20260506085103 13 338 0.0 0.0 0.00 0.00 0.00 90 1007.1
20260506084103 13 338 0.0 1.6 0.00 0.00 0.00 89 1007.3
20260506083604 13 338 1.6 1.6 0.00 0.00 0.00 89 1007.3
20260506083104 13 338 1.6 1.6 0.00 0.00 0.00 89 1007.3
20260506082603 13 338 0.0 0.0 0.00 0.00 0.00 89 1007.2
20260506081603 13 338 0.0 0.0 0.00 0.00 0.00 88 1007.2
20260506081103 13 338 0.0 0.0 0.00 0.00 0.00 88 1007.2
20260506073103 15 338 0.0 1.6 0.00 0.00 0.00 86 1007.7
20260506072603 15 338 1.6 3.2 0.00 0.00 0.00 86 1007.6
20260506072103 15 338 0.0 1.6 0.00 0.00 0.00 86 1007.8
20260506071603 15 338 0.0 1.6 0.00 0.00 0.00 86 1007.9
20260506071103 15 338 1.6 1.6 0.00 0.00 0.00 85 1007.9
20260506070603 15 338 0.0 1.6 0.00 0.00 0.00 85 1008.0
20260506070103 15 338 0.0 1.6 0.00 0.00 0.00 85 1007.9
20260506062103 15 340 3.2 4.8 0.00 0.00 0.00 84 1008.3
20260506061604 15 341 1.6 3.2 0.00 0.00 0.00 83 1008.3
20260506061103 15 341 3.2 4.8 0.00 0.00 0.00 83 1008.2
20260506060603 15 295 1.6 3.2 0.00 0.00 0.00 82 1008.3
20260506050603 16 295 1.6 4.8 0.00 0.00 0.00 79 1008.5
20260506050103 16 355 1.6 8.0 0.00 0.00 0.00 79 1008.6
20260506045103 16 303 1.6 4.8 0.00 0.00 0.00 79 1008.7
20260506044603 16 340 3.2 9.7 0.00 0.00 0.00 79 1008.6
20260506044103 17 349 4.8 12.9 0.00 0.00 0.00 79 1008.5
20260506043603 17 340 3.2 14.5 0.00 0.00 0.00 79 1008.5
20260506043103 17 331 3.2 12.9 0.00 0.00 0.00 78 1008.3
20260506042603 17 299 3.2 8.0 0.00 0.00 0.00 76 1008.3
20260506042104 17 346 1.6 4.8 0.00 0.00 0.00 75 1008.1
20260506041603 18 346 3.2 8.0 0.00 0.00 0.00 73 1008.1
20260506041104 18 275 0.0 1.6 0.00 0.00 0.00 72 1007.9
20260506040603 18 275 1.6 1.6 0.00 0.00 0.00 72 1007.8
20260506035603 18 275 1.6 3.2 0.00 0.00 0.00 72 1007.6
20260506035104 18 275 1.6 3.2 0.00 0.00 0.00 71 1007.6
20260506034603 18 275 1.6 3.2 0.00 0.00 0.00 70 1007.6
20260506033603 19 275 0.0 3.2 0.00 0.00 0.00 68 1007.5
20260506033103 20 275 1.6 4.8 0.00 0.00 0.00 66 1007.4
20260506032103 21 335 8.0 11.3 0.00 0.00 0.00 54 1007.5
20260506031603 21 243 4.8 8.0 0.00 0.00 0.00 51 1007.2
20260506031103 20 243 4.8 8.0 0.00 0.00 0.00 53 1007.1
20260506030604 20 248 4.8 11.3 0.00 0.00 0.00 57 1007.1
20260506030104 19 257 4.8 11.3 0.00 0.00 0.00 61 1007.1
20260506025604 18 251 3.2 8.0 0.00 0.00 0.00 64 1007.1
20260506024603 18 263 1.6 3.2 0.00 0.00 0.00 71 1007.1
20260506024104 18 290 1.6 3.2 0.00 0.00 0.00 73 1007.0
20260506023603 18 290 1.6 3.2 0.00 0.00 0.00 74 1007.1
20260506023103 18 290 1.6 3.2 0.00 0.00 0.00 74 1007.1
20260506022603 18 290 1.6 3.2 0.00 0.00 0.00 74 1007.2
20260506022104 18 290 0.0 3.2 0.00 0.00 0.00 74 1007.3
20260506021604 18 290 1.6 3.2 0.00 0.00 0.00 74 1007.3
20260506020103 18 290 1.6 3.2 0.00 0.00 0.00 73 1007.5
20260506015603 18 290 1.6 3.2 0.00 0.00 0.00 72 1007.6
20260506014604 18 289 1.6 9.7 0.00 0.00 0.00 71 1007.5
20260506013603 19 93 1.6 3.2 0.00 0.00 0.00 69 1007.2
20260506013103 19 97 0.0 1.6 0.00 0.00 0.00 68 1007.2
20260506012603 19 97 1.6 3.2 0.00 0.00 0.00 69 1007.0
20260506012103 18 97 1.6 3.2 0.00 0.00 0.00 69 1007.0
20260506011603 18 97 1.6 3.2 0.00 0.00 0.00 69 1006.9
20260506011103 18 97 1.6 3.2 0.00 0.00 0.00 69 1006.9
20260506010604 18 97 0.0 1.6 0.00 0.00 0.00 69 1006.9
20260506005603 18 97 3.2 4.8 0.00 0.00 0.00 70 1006.8
20260506005103 18 97 3.2 4.8 0.00 0.00 0.00 70 1006.8
20260506004604 18 97 1.6 9.7 0.00 0.00 0.00 70 1006.8
20260506004103 18 93 4.8 8.0 0.00 0.00 0.00 70 1006.7
20260506003603 18 93 1.6 4.8 0.00 0.00 0.00 70 1006.7
20260506002604 19 93 1.6 4.8 0.00 0.00 0.00 70 1006.6
20260506002104 19 93 3.2 4.8 0.00 0.00 0.00 70 1006.6
20260506001603 19 92 1.6 3.2 0.00 0.00 0.00 69 1006.7
20260506001104 19 92 0.0 1.6 0.00 0.00 0.00 69 1006.7
20260506000104 19 93 1.6 3.2 0.00 0.00 0.00 69 1006.4
20260505235603 19 93 3.2 4.8 0.00 0.00 0.00 69 1006.4
20260505235103 19 93 1.6 3.2 0.00 0.00 0.00 69 1006.4
20260505234603 19 93 1.6 4.8 0.00 0.00 0.00 69 1006.3
20260505233103 19 96 3.2 8.0 0.00 0.00 0.00 69 1006.2
20260505232603 19 101 1.6 4.8 0.00 0.00 0.00 68 1006.3
20260505232104 20 105 3.2 4.8 0.00 0.00 0.00 68 1006.4
20260505230604 20 266 1.6 4.8 0.00 0.00 0.00 66 1006.2
20260505225603 20 101 3.2 9.7 0.00 0.00 0.00 64 1006.2
20260505225103 21 8 3.2 8.0 0.00 0.00 0.00 61 1006.2
20260505224603 21 347 1.6 4.8 0.00 0.00 0.00 59 1006.0
20260505223603 23 3 4.8 19.3 0.00 0.00 0.00 51 1006.1
20260505223105 25 334 9.7 16.1 0.00 0.00 0.00 45 1006.1
20260505222603 26 298 9.7 14.5 0.00 0.00 0.00 34 1005.8
20260505221604 26 255 9.7 20.9 0.00 0.00 0.00 33 1004.8
20260505221103 26 239 8.0 14.5 0.00 0.00 0.00 32 1004.7
20260505220603 26 256 4.8 11.3 0.00 0.00 0.00 32 1004.6
20260505220104 26 238 8.0 19.3 0.00 0.00 0.00 31 1004.5
20260505215603 26 248 9.7 19.3 0.00 0.00 0.00 31 1004.4
20260505215104 26 250 11.3 24.1 0.00 0.00 0.00 31 1004.3
20260505214604 26 239 9.7 19.3 0.00 0.00 0.00 31 1004.3
20260505213603 26 249 9.7 19.3 0.00 0.00 0.00 31 1004.1
20260505213104 27 239 11.3 19.3 0.00 0.00 0.00 31 1004.0
20260505212603 27 256 11.3 22.5 0.00 0.00 0.00 31 1004.0
20260505212103 27 244 11.3 19.3 0.00 0.00 0.00 31 1003.9
20260505211603 27 239 11.3 25.7 0.00 0.00 0.00 31 1003.9
20260505211103 27 241 8.0 27.4 0.00 0.00 0.00 31 1003.8
20260505210604 27 236 11.3 25.7 0.00 0.00 0.00 30 1003.8
20260505210104 27 242 6.4 29.0 0.00 0.00 0.00 31 1003.7
20260505205604 27 234 14.5 25.7 0.00 0.00 0.00 31 1003.7
20260505205103 27 238 12.9 27.4 0.00 0.00 0.00 32 1003.7
20260505204603 27 226 9.7 24.1 0.00 0.00 0.00 33 1003.7
20260505204103 27 241 12.9 24.1 0.00 0.00 0.00 33 1003.8
20260505203603 27 251 11.3 24.1 0.00 0.00 0.00 32 1003.8
20260505202603 27 238 11.3 25.7 0.00 0.00 0.00 33 1004.3
20260505202105 27 245 8.0 33.8 0.00 0.00 0.00 34 1004.1
20260505201603 27 240 11.3 25.7 0.00 0.00 0.00 33 1004.0
20260505201104 27 244 9.7 14.5 0.00 0.00 0.00 33 1004.0
20260505200104 27 232 9.7 25.7 0.00 0.00 0.00 33 1003.9
20260505195604 27 284 9.7 19.3 0.00 0.00 0.00 34 1004.1
20260505195103 27 237 9.7 24.1 0.00 0.00 0.00 35 1004.1
20260505194603 27 246 16.1 27.4 0.00 0.00 0.00 34 1004.1
20260505194103 27 240 8.0 19.3 0.00 0.00 0.00 35 1004.2
20260505193604 27 247 11.3 25.7 0.00 0.00 0.00 34 1004.2
20260505193105 27 248 11.3 25.7 0.00 0.00 0.00 34 1004.3
20260505192604 27 255 8.0 20.9 0.00 0.00 0.00 35 1004.3
20260505192104 27 261 12.9 20.9 0.00 0.00 0.00 35 1004.3
20260505191603 27 216 8.0 16.1 0.00 0.00 0.00 37 1004.5
20260505191105 27 235 9.7 19.3 0.00 0.00 0.00 36 1004.5
20260505190606 27 234 8.0 19.3 0.00 0.00 0.00 36 1004.5
20260505185103 26 302 11.3 11.3 0.00 0.00 0.00 37 1004.8
20260505184603 26 302 11.3 11.3 0.00 0.00 0.00 37 1004.8
20260505184103 26 302 11.3 19.3 0.00 0.00 0.00 37 1004.8
20260505183603 26 248 9.7 20.9 0.00 0.00 0.00 37 1004.8
20260505183103 26 243 14.5 24.1 0.00 0.00 0.00 37 1004.8
20260505182603 26 234 14.5 33.8 0.00 0.00 0.00 36 1004.9
20260505182103 27 234 11.3 25.7 0.00 0.00 0.00 36 1005.1
20260505181603 27 215 8.0 16.1 0.00 0.00 0.00 36 1005.2
20260505181103 27 261 11.3 19.3 0.00 0.00 0.00 36 1005.1
20260505180603 27 256 12.9 20.9 0.00 0.00 0.00 37 1005.1
20260505175603 27 259 11.3 19.3 0.00 0.00 0.00 36 1005.2
20260505174603 0 0 0.0 0.0 0.00 0.00 0.00 100 217.8
20260505174103 0 0 0.0 0.0 0.00 0.00 0.00 100
20260505173603 0 0 0.0 0.0 0.00 0.00 0.00 100